Regional Weather Roundup
Issued by NWS

Home | Current Version | Previous Version | Text Only | Print | Product List | Glossary On
Versions: 1 2 3 4 5 6 7 8 9 10 11 12 13 14 15 16 17 18 19 20 21 22 23 24 25 26 27 28 29 30 31 32 33 34 35 36 37 38 39 40 41 42 43 44 45 46 47 48 49 50
000
ASUS43 KMPX 160701
RWRMN
WEATHER ROUNDUP FOR MINNESOTA
NATIONAL WEATHER SERVICE TWIN CITIES/CHANHASSEN MN
100 AM CST MON JAN 16 2017


NOTE: "FAIR" INDICATES FEW OR NO CLOUDS BELOW 12,000 FEET WITH NO
SIGNIFICANT WEATHER AND/OR OBSTRUCTIONS TO VISIBILITY. N/A MEANS
CURRENT SKY AND/OR WEATHER CONDITIONS ARE NOT AVAILABLE.

MNZ060>063-068>070-160800-
   Twin Cities Metro

CITY           SKY/WX    TMP DP  RH WIND       PRES   REMARKS
TWIN CITIES    CLOUDY    22  15  75 S6        30.20S WCI  14
ST PAUL        CLOUDY    18  16  92 SE6       30.22F FOG     WCI  10
CRYSTAL        CLOUDY    21  14  74 CALM      30.18S
BLAINE         CLOUDY    19  18  93 S5        30.18S WCI  13
LAKEVILLE      CLOUDY    18  16  93 CALM      30.20S
EDEN PRAIRIE   CLOUDY    21  15  78 S6        30.18F WCI  13
SOUTH ST PAUL  CLOUDY    16  14  91 CALM      30.20F FOG
LAKE ELMO      FAIR      14  12  92 S5        30.20F WCI   6
$$
MNZ001>005-007-008-013>017-022>024-027-028-160800-
   Northwest Minnesota

CITY           SKY/WX    TMP DP  RH WIND       PRES   REMARKS
BEMIDJI        CLOUDY     9   8  95 CALM      30.05R FOG
HALLOCK        CLOUDY     9   3  78 S9        30.02R WCI  -5
ROSEAU         CLOUDY    14   9  79 S5        30.00R WCI   6
WARROAD        CLOUDY    16  10  79 SW12      30.00R WCI   3
THIEF RVR FALL CLOUDY    14  10  84 S15       30.04S WCI  -1
CROOKSTON      CLOUDY    10   9  92 SW16      30.07R WCI  -7
FOSSTON        CLOUDY    12  10  92 S14       30.07R WCI  -3
DETROIT LAKES  CLOUDY    18  14  86 S3        30.09S
MOORHEAD       CLOUDY    10   7  85 S9        30.10S WCI  -2
PARK RAPIDS    CLOUDY    11   6  81 S6        30.07S HAZE    WCI   1
MAHNOMEN       FAIR      14  11  89 S12       30.07R WCI   0
$$
MNZ006-009>011-018-025>026-160800-
   North Central Minnesota

CITY           SKY/WX    TMP DP  RH WIND       PRES   REMARKS
BAUDETTE       CLOUDY    10   5  80 SE6       30.00R WCI   0
FLAG ISLAND    CLOUDY     9   3  78 SE7       29.98R WCI  -3
INTL FALLS     CLOUDY    11   7  84 SW3       30.03R
WASKISH        CLOUDY    19  14  79 S5        30.03S WCI  13
BIG FORK       CLOUDY    18  12  79 S8        30.06R WCI   7
LONGVILLE      PTCLDY    18  16  93 S5        30.08F WCI  11
GRAND RAPIDS   CLOUDY    16  14  92 S7        30.10R WCI   6
CRANE LAKE     CLOUDY    19  16  86 S5        30.07R WCI  13
ORR            CLOUDY    18  12  79 CALM      30.04R
COOK           CLOUDY    21  16  79 S3        30.07R
WALKER         FAIR      20  15  84 S6        30.07S WCI  12
$$
MNZ012-019>021-037-160800-
   Northeast Minnesota

CITY           SKY/WX    TMP DP  RH WIND       PRES   REMARKS
DULUTH         CLOUDY    20  16  84 SW8       30.09F WCI  10
ELY            CLOUDY    18  12  79 SW6       30.06S WCI   9
HIBBING        CLOUDY     6   5  95 SE5       30.09R FOG     WCI  -3
EVELETH        CLEAR     10   7  89 CALM      30.10S
DULUTH HARBOR  CLOUDY    19  16  86 CALM      30.16S
TWO HARBORS    CLEAR     18  12  79 W3        30.10R
SILVER BAY     CLEAR     18  16  93 SW3       30.08S
GRAND MARAIS     N/A     27  17  66 W7        30.09R WCI  19
G MARAIS ARPRT CLOUDY    16   9  73 SW6       30.02S WCI   7
$$
MNZ029>031-032-039>041-046>048-054>057-064-160800-
   West Central Minnesota

CITY           SKY/WX    TMP DP  RH WIND       PRES   REMARKS
FERGUS FALLS   CLOUDY    12   9  85 S9        30.16F WCI   0
WHEATON        CLEAR     21  18  86 SE9       30.11F WCI  11
MORRIS         CLOUDY    12  10  92 SE7       30.11S WCI   2
ALEXANDRIA     CLOUDY    15  12  88 SW8       30.11S WCI   4
ELBOW LAKE     FAIR      16  14  91 E7        30.11S FOG     WCI   6
WADENA         CLOUDY    14  12  92 CALM      30.09R
GLENWOOD       CLOUDY    18  16  93 S9        30.12S WCI   6
APPLETON       CLOUDY    19  16  86 S6        30.13S WCI  11
ORTONVILLE     CLOUDY    12   9  85 CALM      30.10F
MADISON        CLOUDY    16  12  86 S7        30.14S WCI   6
WILLMAR        FAIR      18  16  93 CALM      30.15F
$$
MNZ033>034-036-042>043-049>051-058-059-160800-
   Central Minnesota

CITY           SKY/WX    TMP DP  RH WIND       PRES   REMARKS
ST CLOUD       CLOUDY    16  15  96 S5        30.14F WCI   9
SAUK CENTRE    FAIR      17  15  93 S5        30.12F WCI   9
PAYNESVILLE    CLOUDY    20  20  98 S9        30.14F WCI  10
AITKIN         CLOUDY    10   3  72 CALM      30.10S HAZE
PINE RIVER     CLOUDY     9   7  92 CALM      30.12F FOG
BRAINERD       CLOUDY    13  12  96 S7        30.11S FOG     WCI   3
STAPLES        CLOUDY    12  10  92 CALM      30.10S FOG
LONG PRAIRIE   FAIR      12  10  92 S5        30.12S FOG     WCI   4
LITTLE FALLS   CLOUDY    10   9  92 CALM      30.14S FOG
LITCHFIELD     CLOUDY    19  18  93 CALM      30.16S
BUFFALO        CLOUDY    20  17  87 S3        30.18F
MAPLE LAKE     CLOUDY    20  19  93 S5        30.17F WCI  14
HUTCHINSON     CLOUDY    17  16  94 S5        30.17F WCI  10
$$
MNZ037-044-045-052-053-160800-
   East Central Minnesota

CITY           SKY/WX    TMP DP  RH WIND       PRES   REMARKS
PRINCETON      CLOUDY    21  18  86 CALM      30.16S
MORA           CLOUDY     5   1  85 CALM      30.17S
CAMBRIDGE      PTCLDY    19  14  79 S3        30.16R
RUSH CITY        N/A     14  12  92 S5        30.18R WCI   6
MOOSE LAKE     CLOUDY     9   3  78 CALM      30.13S FOG
HINCKLEY       FAIR      10   9  92 CALM      30.16S FOG
CLOQUET        CLOUDY    18  16  93 SW7       30.12R WCI   8
MCGREGOR       CLOUDY    18  18 100 CALM      30.12S
$$
MNZ071>073-080-081-089-090-097-098-160800-
   Southwest Minnesota

CITY           SKY/WX    TMP DP  RH WIND       PRES   REMARKS
MONTEVIDEO     CLOUDY    19  18  93 SW8       30.15F WCI   9
GRANITE FALLS  CLOUDY    19  17  88 SE6       30.16F WCI  11
CANBY          CLOUDY    15  12  87 CALM      30.13F
MARSHALL       CLOUDY    22  15  75 S8        30.14F WCI  12
REDWOOD FALLS  CLOUDY    20  14  77 S7        30.16S WCI  11
OLIVIA         CLOUDY    19  18  93 S6        30.15F WCI  11
PIPESTONE      CLOUDY    23  16  74 S3        30.11F
WINDOM         CLOUDY    23  19  86 CALM      30.15F
WORTHINGTON    CLOUDY    24  20  84 S6        30.14F WCI  17
JACKSON        CLOUDY    23  19  86 S6        30.15F WCI  16
TRACY          CLOUDY    26  18  72 S9        30.14S WCI  16
SLAYTON        CLOUDY    20  16  85 SE5       30.14S WCI  13
$$
MNZ065>067-074>077-082>085-091>093-160800-
   South Central Minnesota

CITY           SKY/WX    TMP DP  RH WIND       PRES   REMARKS
MANKATO        CLOUDY    21  17  84 S7        30.19F WCI  12
NEW ULM        CLOUDY    21  18  86 CALM      30.18S
ST JAMES       CLOUDY    21  19  93 SE7       30.19F WCI  13
FAIRMONT       CLOUDY    21  18  88 S6        30.18F WCI  13
GLENCOE        CLOUDY    22  19  91 S3        30.17F
FARIBAULT      CLOUDY    19  18  93 S5        30.20F WCI  13
OWATONNA       CLOUDY    21  16  79 SE9       30.19S WCI  11
WASECA         CLOUDY    19  16  86 SE6       30.21S WCI  11
ALBERT LEA     PTCLDY    21  18  86 CALM      30.19F
$$
MNZ078>079-086>088-094>096-160800-
   Southeast Minnesota

CITY           SKY/WX    TMP DP  RH WIND       PRES   REMARKS
ROCHESTER      CLOUDY    17  15  92 S7        30.20F WCI   8
RED WING       PTCLDY    18  14  86 E3        30.22F
STANTON        CLOUDY    20  15  82 SW3       30.19F
DODGE CENTER   CLOUDY    16  12  86 CALM      30.19S
WINONA           N/A     12  10  92 CALM      30.27S
AUSTIN         CLOUDY    21  16  79 S6        30.20F WCI  14
PRESTON        CLOUDY    19  16  86 S3        30.22S
$$
ABBREVIATIONS USED IN REMARKS
   TC - TEMPERATURES IN CELSIUS
  WCI - WIND CHILL INDEX
   HX - HEAT INDEX
  VSB - VISIBILITY
$$




USA.gov is the U.S. government's official web portal to all federal, state and local government web resources and services.